Location: Mentone
(34.0700°N, 117.1345°W)
Time: 18:20:47
(UTC+00:00)

Daily predictions for brighter satellites

Satellite Brightness Start Highest point End
(mag) Time Altitude Azimuth Time Altitude Azimuth Time Altitude Azimuth
BREEZE-M DEB (TANK) 3.8 12:02:30 10° WSW 12:04:22 16° SSW 12:07:22 10° S
Cosmos 1328 Rocket 4.4 12:00:44 10° NNW 12:04:36 31° W 12:08:25 10° SSW
Cosmos 1340 3.2 12:02:03 10° SSW 12:05:35 39° W 12:09:08 10° N
Cosmos 158 Rocket 3.9 12:00:43 10° SSW 12:05:45 72° WNW 12:10:43 10° NNE
STARLINK-1034 4.0 12:03:05 10° WSW 12:07:08 54° NW 12:11:12 10° NE
Cosmos 2344 3.7 12:00:54 10° SW 12:08:32 65° WNW 12:16:11 10° NNE
Cosmos 1680 Rocket 3.7 12:05:15 10° SSW 12:10:23 56° WNW 12:15:35 10° N
PSLV R/B 4.0 12:06:37 10° N 12:10:35 41° WNW 12:14:31 10° SW
SL-24 R/B - RUBIN 2 4.4 12:06:02 10° SSW 12:11:37 88° WNW 12:17:58 10° NNE
